Regional Weather Roundup
Issued by NWS Sioux Falls, SD

Home | Current Version | Previous Version | Text Only | Print | Product List | Glossary Off
Versions: 1 2 3 4 5 6 7 8 9 10 11 12 13 14 15 16 17 18 19 20 21 22 23 24 25 26 27 28 29 30 31 32 33 34 35 36 37 38 39 40 41 42 43 44 45 46 47 48 49 50

000
ASUS43 KFSD 270202
RWRFSD

WEATHER ROUNDUP FOR SE SOUTH DAKOTA/SW MINNESOTA/NW IOWA
NATIONAL WEATHER SERVICE SIOUX FALLS SD
900 PM CDT SUN APR 26 2015

NOTE: "FAIR" INDICATES FEW OR NO CLOUDS BELOW 12,000 FEET WITH NO
SIGNIFICANT WEATHER AND OR OBSTRUCTIONS TO VISIBILITY.


SDZ038>040-050-052>070-270300-
SOUTHEAST SOUTH DAKOTA

CITY           SKY/WX    TMP DP  RH WIND       PRES   REMARKS
BROOKINGS      CLEAR     55  28  35 NE6       30.10R
CHAMBERLAIN    NOT AVBL
HURON          CLEAR     54  33  45 E7        30.07R
MADISON        FAIR      54  28  37 NE6       30.09R
MITCHELL       CLEAR     56  38  50 E6        30.07R
SIOUX FALLS    PTCLDY    52  34  50 N6        30.06R
WINNER         FAIR      54  31  41 SE8       30.07R
YANKTON        CLEAR     57  28  33 E3        30.04R
$$

MNZ071-072-080-081-089-090-097-098-270300-
SOUTHWEST MINNESOTA

CITY           SKY/WX    TMP DP  RH WIND       PRES   REMARKS
FAIRMONT       CLEAR     55  21  26 NE9       30.08R
JACKSON        CLEAR     54  21  28 E8        30.08R
LUVERNE        CLEAR     57  28  33 NE7       30.08R
MARSHALL       CLEAR     54  19  26 NE10      30.09R
MONTEVIDEO     CLEAR     52  21  30 E8        30.12R
REDWOOD FALLS  CLEAR     56  15  20 VRB5      30.09R
TRACY          CLEAR     54  20  27 NE6       30.09R
WORTHINGTON    CLEAR     54  25  32 NE8       30.08R
$$

IAZ001>003-012>014-020>022-031-032-NEZ013-014-SDZ071-270300-
NORTHWEST IOWA

CITY           SKY/WX    TMP DP  RH WIND       PRES   REMARKS
DENISON        CLEAR     54  32  43 E7        30.03R
ESTHERVILLE    CLEAR     46  28  49 NE9       30.07R
SIOUX CITY     CLEAR     60  30  32 E5        30.04R
SPENCER        CLEAR     52  32  46 E8        30.06R
$$

ABBREVIATIONS USED IN REMARKS
   TC - TEMPERATURE IN CELSIUS
  WCI - WIND CHILL INDEX
   HX - HEAT INDEX
  VSB - VISIBILITY




USA.gov is the U.S. government's official web portal to all federal, state and local government web resources and services.